Tracking 30417 objects as of 16-May-2025
HD Live streaming from Space Station
objects crossing your sky now

STARLINK-6145

Track STARLINK-6145 now!
10-day predictions
STARLINK-6145 is classified as:


NORAD ID: 56389
Int'l Code: 2023-061R
Perigee: 565.4 km
Apogee: 567.0 km
Inclination: 43.0 °
Period: 95.8 minutes
Semi major axis: 6937 km
RCS: Unknown
Launch date: May 4, 2023
Source: United States (US)
Launch site: AIR FORCE EASTERN TEST RANGE (AFETR)
Your satellite tracking list
Your tracking list is empty




NASA's NSSDC Master Catalog

Two Line Element Set (TLE):
1 56389U 23061R   25135.97486281  .00000741  00000-0  69918-4 0  9993
2 56389  43.0043  14.8998 0001136 268.0414  92.0298 15.02536242111971
Source of the keplerian elements: AFSPC